This demonstration page uses our WeatherBlox Daily Observations layout. Learn more.

Left ArrowRight Arrow

34.02893, -84.19858

Hourly Observations for October 3, 2022

Temp ( °F °C ) Dew Point ( °F °C ) Humidity (%) Winds ( mph kmh ) Pressure ( in mb ) Visibility ( mi km ) Precip ( " mm )
12:53 am 00:53 Clear 55 12.8 51 10.6 86 86 NNW 3 6 30.07 1018 10 16 0.00 0.00
1:53 am 01:53 Clear 53 11.7 51 10.6 93 93 Calm 30.07 1018 10 16 0.00 0.00
2:53 am 02:53 Clear 51 10.6 50 10 96 96 Calm 30.07 1018 10 16 0.00 0.00
3:53 am 03:53 Clear 51 10.6 50 10 96 96 N 5 7 30.06 1018 10 16 0.00 0.00
4:53 am 04:53 Clear 50 10 50 10 100 100 Calm 30.08 1019 10 16 0.00 0.00
5:53 am 05:53 Clear 51 10.6 50 10 96 96 NNE 3 6 30.09 1019 10 16 0.00 0.00
6:53 am 06:53 Clear 50 10 49 9.4 96 96 Calm 30.11 1020 10 16 0.00 0.00
7:53 am 07:53 Sunny 49 9.4 49 9.4 100 100 Calm 30.13 1020 10 16 0.00 0.00
8:53 am 08:53 Sunny 56 13.3 51 10.6 84 84 N 3 6 30.14 1021 10 16 0.00 0.00
9:53 am 09:53 Sunny 61 16.1 52 11.1 72 72 Calm 30.14 1021 10 16 0.00 0.00
10:53 am 10:53 Sunny 65 18.3 51 10.6 61 61 undefined N/A 30.14 1021 10 16 0.00 0.00
11:53 am 11:53 Sunny 69 20.6 51 10.6 53 53 VRB 6 9 30.14 1021 10 16 0.00 0.00
12:53 pm 12:53 Sunny 70 21.1 51 10.6 51 51 NNW 5 7 30.12 1020 10 16 0.00 0.00
1:53 pm 13:53 Sunny 72 22.2 51 10.6 48 48 VRB 5 7 30.10 1019 10 16 0.00 0.00
2:53 pm 14:53 Mostly Cloudy 72 22.2 52 11.1 49 49 NNW 6 9 30.07 1018 10 16 0.00 0.00
3:53 pm 15:53 Mostly Sunny 73 22.8 52 11.1 48 48 VRB 3 6 30.05 1018 10 16 0.00 0.00
4:53 pm 16:53 Mostly Cloudy 72 22.2 52 11.1 49 49 N 8 13 30.05 1018 10 16 0.00 0.00
5:53 pm 17:53 Partly Cloudy 74 23.3 53 11.7 48 48 WNW 8 13 30.04 1017 10 16 0.00 0.00
6:53 pm 18:53 Mostly Sunny 70 21.1 53 11.7 55 55 NW 5 7 30.05 1018 10 16 0.00 0.00
7:53 pm 19:53 Clear 67 19.4 53 11.7 61 61 NW 5 7 30.07 1018 10 16 0.00 0.00
8:53 pm 20:53 Clear 64 17.8 54 12.2 70 70 NNW 6 9 30.08 1019 10 16 0.00 0.00
9:53 pm 21:53 Mostly Clear 61 16.1 53 11.7 75 75 NNE 5 7 30.10 1019 10 16 0.00 0.00
10:53 pm 22:53 Mostly Cloudy 60 15.6 53 11.7 78 78 N 3 6 30.10 1019 10 16 0.00 0.00
11:53 pm 23:53 Clear 56 13.3 52 11.1 87 87 Calm 30.10 1019 10 16 0.00 0.00

Powered by AerisWeather